This is the latest recevied weather packets stored in our database for station/object KB0BS-13. If no packets are shown the sender has not sent any weather packets the latest 10 day(s).
| Time | Temp. | Humidity | Pressure | Rain* | Wind** | Luminosity | Snow |
|---|---|---|---|---|---|---|---|
| 1777825200 | 6.11° C | 95% | 1007.3 hPa | 0 mm | - | 533 W/m² | - |
| 1777824896 | 5.56° C | 95% | 1007.3 hPa | 0 mm | - | 590 W/m² | - |
| 1777824592 | 5.56° C | 96% | 1007.4 hPa | 0 mm | - | 571 W/m² | - |
| 1777824289 | 5° C | 95% | 1007.5 hPa | 0 mm | - | 386 W/m² | - |
| 1777823984 | 4.44° C | 96% | 1007.2 hPa | 0 mm | - | 362 W/m² | - |
| 1777823682 | 4.44° C | 95% | 1007.3 hPa | 0 mm | - | 241 W/m² | - |
| 1777823378 | 3.89° C | 94% | 1007.4 hPa | 0 mm | - | 191 W/m² | - |
| 1777823077 | 3.89° C | 96% | 1007.3 hPa | 0 mm | - | 185 W/m² | - |
| 1777822774 | 3.89° C | 97% | 1007.4 hPa | 0 mm | - | 202 W/m² | - |
| 1777822472 | 3.33° C | 97% | 1007.5 hPa | 0 mm | - | 157 W/m² | - |
| 1777822169 | 3.33° C | 97% | 1007.5 hPa | 0 mm | - | 144 W/m² | - |
| 1777821866 | 3.33° C | 96% | 1007.5 hPa | 0 mm | - | 113 W/m² | - |
| 1777821564 | 3.33° C | 96% | 1007.7 hPa | 0 mm | - | 141 W/m² | - |
| 1777821262 | 3.33° C | 96% | 1007.7 hPa | 0 mm | - | 99 W/m² | - |
| 1777820958 | 3.33° C | 96% | 1007.5 hPa | 0 mm | - | 84 W/m² | - |
| 1777820655 | 2.78° C | 98% | 1007.6 hPa | 0 mm | - | 107 W/m² | - |
| 1777820351 | 2.78° C | 99% | 1007.6 hPa | 0 mm | - | 101 W/m² | - |
| 1777820049 | 2.78° C | 98% | 1007.8 hPa | 1.78 mm | - | 83 W/m² | - |
| 1777819745 | 2.22° C | 98% | 1008.1 hPa | 0 mm | - | 57 W/m² | - |
| 1777819444 | 2.22° C | 99% | 1008.3 hPa | 0 mm | - | 63 W/m² | - |
| 1777819141 | 2.22° C | 98% | 1008.1 hPa | 0 mm | - | 52 W/m² | - |
| 1777818838 | 2.22° C | 98% | 1008.1 hPa | 1.27 mm | - | 50 W/m² | - |
| 1777818534 | 2.22° C | 98% | 1008.1 hPa | 1.78 mm | - | 39 W/m² | - |
| 1777818232 | 2.22° C | 98% | 1008.2 hPa | 3.05 mm | - | 37 W/m² | - |
| 1777817927 | 2.22° C | 97% | 1008.3 hPa | 1.27 mm | - | 34 W/m² | - |
* Rain latest hour (hover to see other rain measurements)
** Current wind speed in m/s (hover to see current wind gust speed)